Location: Qazi Observatory
(41.6337°N, 88.1517°W)
Time: 13:53:33
(UTC-06:00)

Amateur Radio Satellites - All Passes

Search period start: 02 December 2016 13:23
Search period end: 03 December 2016 13:23
Location: Qazi Observatory, 41.6337°N, 88.1517°W

Satellite Date Start Highest point End Downlink Frequencies (MHz)
Time Altitude Azimuth
DX 1 02 Dec 13:31:22 13:34:42 22° 294° (WNW) 13:38:02 434.975-435.025
SWISSCUBE 02 Dec 13:38:25 13:42:07 22° 94° (E) 13:45:47 437.505
Cosmos 2499 02 Dec 13:39:46 13:46:26 26° 280° (W) 13:52:50 435.465 / 435.565
BEESAT 02 Dec 13:42:56 13:46:37 22° 94° (E) 13:50:17 436.000
UKube-1 02 Dec 13:47:01 13:50:07 20° 295° (WNW) 13:53:14 .
Gurwin Techsat 1B 02 Dec 13:51:27 13:56:13 33° 263° (W) 14:01:01 435.225
RS-15 02 Dec 13:58:17 14:08:25 28° 20° (NNE) 14:18:27 29.354- 29.394
AO-7 02 Dec 13:59:15 14:07:20 60° 66° (ENE) 14:15:28 29.400- 29.500
BEESAT 3 02 Dec 14:00:59 14:04:40 35° 51° (NE) 14:08:20 437.485
ITUPSAT 1 02 Dec 14:07:12 14:11:39 38° 98° (E) 14:16:02 437.325
TISAT 1 02 Dec 14:09:06 14:12:57 35° 290° (WNW) 14:16:47 437.305
BEESAT 2 02 Dec 14:21:12 14:24:43 28° 48° (NE) 14:28:12 435.950
AUBIESAT-1 02 Dec 14:22:30 14:27:03 53° 105° (ESE) 14:31:26 437.475
M-CUBED/EXP-1 PRIME 02 Dec 14:31:01 14:35:45 81° 106° (ESE) 14:40:21 437.505
PCSat 02 Dec 14:32:55 14:34:51 12° 324° (NW) 14:36:48 145.827
ITAMSAT 1 02 Dec 14:47:46 14:52:39 40° 261° (W) 14:57:35 435.822/435.867
KKS-1 02 Dec 14:51:33 14:52:18 10° 89° (E) 14:53:03 437.445
HORYU 2 02 Dec 15:03:56 15:06:01 13° 61° (ENE) 15:08:05 437.375
SWISSCUBE 02 Dec 15:15:36 15:20:01 39° 290° (WNW) 15:24:23 437.505
BEESAT 02 Dec 15:20:06 15:24:32 39° 290° (WNW) 15:28:55 436.000
MOZHAYETS 4 02 Dec 15:24:57 15:29:29 61° 101° (E) 15:33:58
O/OREOS (USA 219) 02 Dec 15:27:45 15:30:35 16° 100° (E) 15:33:25 437.305
BEESAT 3 02 Dec 15:39:02 15:42:06 21° 248° (WSW) 15:45:08 437.485
ITUPSAT 1 02 Dec 15:45:29 15:49:15 24° 294° (WNW) 15:53:00 437.325
AO-7 02 Dec 15:53:24 16:00:29 31° 264° (W) 16:07:40 29.400- 29.500
CUTE-I 02 Dec 15:54:18 15:57:21 16° 60° (ENE) 16:00:26 437.470
AUBIESAT-1 02 Dec 15:57:50 16:01:00 19° 302° (WNW) 16:04:08 437.475
BEESAT 2 02 Dec 15:58:59 16:02:28 28° 245° (WSW) 16:05:56 435.950
GOMX 1 02 Dec 16:03:18 16:06:56 25° 66° (ENE) 16:10:46 467.674
BRITE-PL 02 Dec 16:06:02 16:10:11 60° 74° (ENE) 16:14:36 437.365/2234.400
M-CUBED/EXP-1 PRIME 02 Dec 16:07:16 16:09:32 14° 305° (NW) 16:11:48 437.505
RS-15 02 Dec 16:11:47 16:24:07 64° 50° (NE) 16:36:03 29.354- 29.394
AIST 2 02 Dec 16:13:02 16:15:28 15° 40° (NE) 16:17:55 435.215
Cubesat XI-IV 02 Dec 16:17:28 16:21:43 24° 64° (ENE) 16:25:58 437.490
KKS-1 02 Dec 16:24:52 16:29:22 74° 285° (WNW) 16:33:48 437.445
LilacSat-2 02 Dec 16:25:51 16:28:47 21° 68° (ENE) 16:31:42 437.200
NOAA 15 02 Dec 16:28:32 16:33:11 33° 67° (ENE) 16:37:50 137.62
DOVE 4 02 Dec 16:34:19 16:38:00 23° 65° (ENE) 16:41:52 437.250
HORYU 2 02 Dec 16:37:32 16:42:00 68° 258° (WSW) 16:46:29 437.375
STARS 02 Dec 16:42:09 16:46:36 80° 103° (ESE) 16:51:01 437.465
HO-68 02 Dec 16:49:23 16:53:07 15° 51° (NE) 16:56:50 435.675
CUBESAT XI-V 02 Dec 16:53:33 16:58:13 76° 103° (ESE) 17:02:53 437.345
MOZHAYETS 4 02 Dec 17:03:42 17:06:08 14° 297° (WNW) 17:08:33
O/OREOS (USA 219) 02 Dec 17:05:08 17:09:33 49° 296° (WNW) 17:14:00 437.305
NOAA 18 02 Dec 17:06:45 17:11:58 45° 69° (ENE) 17:17:14 137.9125
Cosmos 2491 02 Dec 17:08:22 17:16:00 32° 69° (ENE) 17:23:34 435.465 / 435.565
CUTE-I 02 Dec 17:31:22 17:36:45 76° 257° (WSW) 17:42:09 437.470
ISS 02 Dec 17:33:55 17:37:12 74° 143° (SE) 17:40:30 145.825
YUBILEINY 02 Dec 17:40:19 17:45:57 19° 78° (ENE) 17:51:34 435.215
GOMX 1 02 Dec 17:40:50 17:44:50 33° 265° (W) 17:49:08 467.674
BRITE-PL 02 Dec 17:47:56 17:49:14 11° 272° (W) 17:50:33 437.365/2234.400
AIST 2 02 Dec 17:50:14 17:54:29 77° 238° (WSW) 17:58:41 435.215
Cubesat XI-IV 02 Dec 17:56:20 18:01:29 46° 261° (W) 18:06:40 437.490
LilacSat-2 02 Dec 17:59:34 18:02:55 28° 264° (W) 18:06:16 437.200
CUTE 1.7 + AOD 2 02 Dec 18:01:32 18:04:57 24° 68° (ENE) 18:08:21 437.475
NOAA 15 02 Dec 18:08:18 18:12:55 31° 264° (W) 18:17:34 137.62
DOVE 4 02 Dec 18:11:01 18:15:23 40° 263° (W) 18:20:03 437.250
CANX-2 02 Dec 18:18:01 18:22:00 42° 72° (ENE) 18:25:59 2200.000
CINEMA 3 02 Dec 18:20:31 18:25:21 69° 75° (ENE) 18:30:20 145.822/145.860
STARS 02 Dec 18:21:08 18:22:17 11° 300° (WNW) 18:23:26 437.465
UWE-3 02 Dec 18:22:45 18:24:56 13° 62° (ENE) 18:27:06 435.000/436.395/437.385
RS-15 02 Dec 18:24:59 18:36:05 42° 253° (WSW) 18:46:52 29.354- 29.394
HO-68 02 Dec 18:32:30 18:39:36 73° 71° (ENE) 18:46:47 435.675
CUBESAT XI-V 02 Dec 18:33:05 18:34:58 12° 299° (WNW) 18:36:52 437.345
AAUSAT CUBESAT 2 02 Dec 18:44:21 18:47:42 25° 69° (ENE) 18:51:04 437.432
NOAA 18 02 Dec 18:48:19 18:52:48 25° 266° (W) 18:57:19 137.9125
SEEDS 02 Dec 18:51:38 18:55:45 59° 74° (ENE) 18:59:51 437.485
STRAND 1 02 Dec 18:54:57 18:59:52 46° 99° (E) 19:04:44 437.568
AIST 1 02 Dec 19:04:42 19:07:40 18° 87° (E) 19:10:39
Cosmos 2491 02 Dec 19:04:48 19:13:14 56° 270° (W) 19:21:38 435.465 / 435.565
CUBEBUG 2 02 Dec 19:05:20 19:09:57 53° 73° (ENE) 19:14:34 437.445
COMPASS 1 02 Dec 19:09:40 19:13:44 63° 75° (ENE) 19:17:50 437.405
ZACube-1 02 Dec 19:11:06 19:14:48 25° 68° (ENE) 19:18:28 437.345
ISS 02 Dec 19:11:18 19:13:59 22° 341° (NNW) 19:16:41 145.825
Cosmos 2504 02 Dec 19:17:56 19:25:26 41° 86° (E) 19:33:22 435.465 / 435.565
FUNcube-1 02 Dec 19:20:54 19:24:47 28° 69° (ENE) 19:28:39 145.935
YUBILEINY 02 Dec 19:32:49 19:41:32 85° 277° (W) 19:50:21 435.215
CUTE 1.7 + AOD 2 02 Dec 19:37:00 19:40:40 28° 264° (W) 19:44:21 437.475
PCSat 02 Dec 19:49:57 19:54:01 21° 44° (NE) 19:58:03 145.827
CANX-2 02 Dec 19:55:23 19:58:03 16° 268° (W) 20:00:43 2200.000
UWE-3 02 Dec 19:56:08 20:00:48 72° 258° (WSW) 20:05:27 435.000/436.395/437.385
Oscar 11 02 Dec 19:56:13 20:00:29 63° 74° (ENE) 20:04:46 145.826/435.025
PRISM 02 Dec 19:56:31 19:58:08 12° 91° (E) 19:59:44 437.425
CINEMA 3 02 Dec 20:00:34 20:02:58 14° 272° (W) 20:05:24 145.822/145.860
DELFI C3 02 Dec 20:16:43 20:20:19 35° 71° (ENE) 20:23:55 145.870
AAUSAT CUBESAT 2 02 Dec 20:19:37 20:23:05 26° 265° (W) 20:26:34 437.432
HO-68 02 Dec 20:22:50 20:27:57 21° 268° (W) 20:33:07 435.675
SEEDS 02 Dec 20:30:27 20:31:48 11° 270° (W) 20:33:10 437.485
SO-50 02 Dec 20:30:55 20:35:34 52° 118° (ESE) 20:40:09 436.795
STRAND 1 02 Dec 20:34:51 20:38:43 22° 296° (WNW) 20:42:34 437.568
AIST 1 02 Dec 20:41:00 20:44:57 35° 283° (WNW) 20:48:58
CUBEBUG 2 02 Dec 20:43:49 20:46:50 17° 269° (W) 20:49:53 437.445
ZACube-1 02 Dec 20:46:46 20:50:54 33° 263° (W) 20:55:01 437.345
COMPASS 1 02 Dec 20:48:58 20:49:42 10° 271° (W) 20:50:26 437.405
ISS 02 Dec 20:49:27 20:51:24 15° 1° (N) 20:53:20 145.825
CUSAT 1 02 Dec 20:51:48 20:55:07 60° 262° (W) 20:59:24 437.405
UNISAT 6 02 Dec 20:54:10 20:55:49 12° 89° (E) 20:57:27 437.425
FUNcube-1 02 Dec 20:57:00 21:00:56 28° 264° (W) 21:04:51 145.935
DANDE 02 Dec 21:00:42 21:03:01 25° 77° (ENE) 21:05:37 436.750
Cosmos 2504 02 Dec 21:10:52 21:18:42 45° 287° (WNW) 21:27:00 435.465 / 435.565
HUMSAT D 02 Dec 21:12:31 21:16:45 85° 76° (ENE) 21:20:59 437.325/437.525
TIGRISAT 02 Dec 21:23:48 21:27:23 24° 94° (E) 21:30:53 435.000
ANTELSAT 02 Dec 21:24:10 21:27:51 25° 95° (E) 21:31:26 437.575/2403.000
ESTCUBE 1 02 Dec 21:25:32 21:28:35 18° 65° (ENE) 21:31:40 437.505/2401.250
PRISM 02 Dec 21:29:40 21:33:45 56° 286° (WNW) 21:37:49 437.425
PCSat 02 Dec 21:32:31 21:37:55 69° 244° (WSW) 21:43:17 145.827
YUBILEINY 02 Dec 21:34:12 21:39:45 18° 299° (WNW) 21:45:22 435.215
Oscar 11 02 Dec 21:35:36 21:37:01 11° 270° (W) 21:38:26 145.826/435.025
AISAT 02 Dec 21:48:58 21:51:23 15° 63° (ENE) 21:53:49 437.250
DELFI C3 02 Dec 21:52:43 21:55:15 16° 267° (W) 21:57:47 145.870
JAS-2 02 Dec 21:56:00 21:56:38 10° 88° (E) 21:57:15 435.910
SO-50 02 Dec 22:12:32 22:16:19 23° 316° (NW) 22:20:03 436.795
QB50P2 02 Dec 22:22:46 22:24:37 12° 90° (E) 22:26:26 145.880/145.840
CUBEBUG 1 02 Dec 22:23:09 22:27:16 43° 72° (ENE) 22:31:25 437.445
POLYITAN 1 02 Dec 22:23:38 22:25:14 12° 90° (E) 22:26:50 437.675
VELOX 1 02 Dec 22:24:26 22:28:18 31° 69° (ENE) 22:32:12 145.980
ISS 02 Dec 22:25:56 22:28:45 25° 21° (NNE) 22:31:34 145.825
UNISAT 6 02 Dec 22:28:34 22:32:59 62° 286° (WNW) 22:37:16 437.425
QB50P1 02 Dec 22:36:53 22:39:42 17° 92° (E) 22:42:30 145.935-145.965
DUCHIFAT 1 02 Dec 22:44:02 22:46:52 17° 93° (E) 22:49:40 145.980
DX 1 02 Dec 22:50:20 22:54:11 32° 69° (ENE) 22:58:04 434.975-435.025
50 SAT 02 Dec 22:50:42 22:54:04 44° 73° (ENE) 22:57:26 437.505
POPSAT HIP 1 02 Dec 22:57:21 23:01:02 28° 96° (E) 23:04:40 437.405
TIGRISAT 02 Dec 23:00:11 23:04:06 31° 291° (WNW) 23:07:55 435.000
ANTELSAT 02 Dec 23:00:42 23:04:32 29° 292° (WNW) 23:08:17 437.575/2403.000
ESTCUBE 1 02 Dec 23:00:47 23:05:03 44° 261° (W) 23:09:21 437.505/2401.250
UKube-1 02 Dec 23:04:52 23:08:45 34° 69° (ENE) 23:12:40 .
AISAT 02 Dec 23:23:02 23:27:21 57° 259° (W) 23:31:44 437.250
SPROUT 02 Dec 23:24:57 23:29:15 90° 223° (SW) 23:33:35 437.525
TISAT 1 02 Dec 23:26:24 23:29:03 16° 64° (ENE) 23:31:42 437.305
JAS-2 02 Dec 23:37:13 23:42:25 84° 285° (WNW) 23:47:45 435.910
M-CUBED/EXP-1 PRIME 02 Dec 23:46:13 23:47:22 11° 54° (NE) 23:48:32 437.505
NANOSAT C BR1 02 Dec 23:54:21 23:58:34 68° 286° (WNW) 00:02:46 145.865
BUGSAT 1 02 Dec 23:55:25 23:59:25 41° 98° (E) 00:03:21 437.445
QB50P2 02 Dec 23:56:34 00:00:45 56° 287° (WNW) 00:04:53 145.880/145.840
POLYITAN 1 02 Dec 23:57:13 00:01:24 58° 286° (WNW) 00:05:32 437.675
CUBEBUG 1 03 Dec 00:00:55 00:03:45 17° 268° (W) 00:06:37 437.445
VELOX 1 03 Dec 00:01:10 00:04:45 24° 265° (W) 00:08:22 145.980
ISS 03 Dec 00:02:12 00:05:28 57° 219° (SW) 00:08:42 145.825
GONETS M04 03 Dec 00:10:16 00:18:18 43° 87° (E) 00:26:20
QB50P1 03 Dec 00:11:39 00:15:39 40° 289° (WNW) 00:19:36 145.935-145.965
DUCHIFAT 1 03 Dec 00:18:45 00:22:42 39° 289° (WNW) 00:26:37 145.980
Cosmos 2499 03 Dec 00:20:45 00:28:53 55° 90° (E) 00:37:26 435.465 / 435.565
DX 1 03 Dec 00:26:57 00:30:24 23° 265° (W) 00:33:52 434.975-435.025
50 SAT 03 Dec 00:27:03 00:27:37 10° 269° (W) 00:28:10 437.505
Gurwin Techsat 1B 03 Dec 00:29:39 00:31:25 12° 88° (E) 00:33:11 435.225
POPSAT HIP 1 03 Dec 00:33:12 00:36:42 25° 292° (WNW) 00:40:10 437.405
UKube-1 03 Dec 00:41:34 00:44:51 21° 266° (W) 00:48:09 .
SWISSCUBE 03 Dec 00:44:57 00:48:57 27° 67° (ENE) 00:52:57 437.505
BEESAT 03 Dec 00:49:25 00:53:23 27° 67° (ENE) 00:57:24 436.000
TISAT 1 03 Dec 01:00:13 01:04:18 46° 261° (W) 01:08:25 437.305
Oscar 19 03 Dec 01:00:22 01:05:22 46° 99° (E) 01:10:20 437.125/150
AUBIESAT-1 03 Dec 01:08:01 01:11:59 64° 69° (ENE) 01:16:17 437.475
ITUPSAT 1 03 Dec 01:13:55 01:18:28 45° 71° (ENE) 01:23:02 437.325
M-CUBED/EXP-1 PRIME 03 Dec 01:17:06 01:21:04 82° 252° (WSW) 01:25:24 437.505
JAS-2 03 Dec 01:25:53 01:26:43 10° 303° (WNW) 01:27:33 435.910
BUGSAT 1 03 Dec 01:31:38 01:34:27 18° 295° (WNW) 01:37:14 437.445
O/OREOS (USA 219) 03 Dec 01:35:50 01:39:54 32° 60° (ENE) 01:43:55 437.305
KKS-1 03 Dec 01:49:52 01:51:13 11° 60° (ENE) 01:52:35 437.445
AO-7 03 Dec 02:02:21 02:07:31 17° 90° (E) 02:12:38 29.400- 29.500
Gurwin Techsat 1B 03 Dec 02:06:40 02:12:01 85° 286° (WNW) 02:17:20 435.225
GONETS M04 03 Dec 02:06:59 02:15:06 42° 287° (WNW) 02:23:15
PHONESAT 2.4 03 Dec 02:12:40 02:15:07 33° 163° (SSE) 02:17:34 2401.200-2431.200
AO-85 03 Dec 02:14:09 02:18:54 45° 117° (ESE) 02:23:19 145.980
Cosmos 2499 03 Dec 02:14:49 02:22:22 35° 291° (WNW) 02:30:17 435.465 / 435.565
SWISSCUBE 03 Dec 02:22:20 02:26:37 33° 263° (W) 02:30:55 437.505
MOZHAYETS 4 03 Dec 02:26:40 02:31:11 59° 73° (ENE) 02:35:42
BEESAT 03 Dec 02:26:45 02:31:02 33° 263° (W) 02:35:21 436.000
Oscar 19 03 Dec 02:40:22 02:44:22 23° 296° (WNW) 02:48:22 437.125/150
AUBIESAT-1 03 Dec 02:45:37 02:46:54 11° 267° (W) 02:48:12 437.475
ITUPSAT 1 03 Dec 02:53:06 02:56:30 19° 267° (W) 02:59:55 437.325
ITAMSAT 1 03 Dec 02:59:56 03:05:07 70° 102° (ESE) 03:10:16 435.822/435.867
O/OREOS (USA 219) 03 Dec 03:15:32 03:19:08 24° 258° (WSW) 03:22:42 437.305
KKS-1 03 Dec 03:22:39 03:27:07 79° 258° (WSW) 03:31:38 437.445
STARS 03 Dec 03:38:30 03:42:54 72° 74° (ENE) 03:47:20 437.465
PHONESAT 2.4 03 Dec 03:47:35 03:50:15 69° 177° (S) 03:52:54 2401.200-2431.200
Gurwin Techsat 1B 03 Dec 03:49:08 03:51:07 12° 303° (WNW) 03:53:08 435.225
AO-7 03 Dec 03:52:54 04:01:20 87° 109° (ESE) 04:09:44 29.400- 29.500
AO-85 03 Dec 03:55:29 03:59:29 25° 313° (NW) 04:03:15 145.980
CUBESAT XI-V 03 Dec 03:56:45 04:01:19 74° 75° (ENE) 04:05:55 437.345
MOZHAYETS 4 03 Dec 04:06:23 04:08:43 14° 270° (W) 04:11:02
BRITE-PL 03 Dec 04:09:53 04:14:10 24° 94° (E) 04:18:34 437.365/2234.400
HORYU 2 03 Dec 04:28:52 04:32:19 22° 94° (E) 04:35:44 437.375
ITAMSAT 1 03 Dec 04:40:57 04:44:00 16° 300° (WNW) 04:47:02 435.822/435.867
NOAA 15 03 Dec 04:45:32 04:47:09 11° 89° (E) 04:48:46 137.62
SO-50 03 Dec 05:02:11 05:06:36 48° 52° (NE) 05:10:55 436.795
Cosmos 2504 03 Dec 05:11:27 05:16:27 16° 58° (ENE) 05:21:20 435.465 / 435.565
STARS 03 Dec 05:18:52 05:19:43 10° 270° (W) 05:20:36 437.465
PHONESAT 2.4 03 Dec 05:22:51 05:25:24 40° 195° (SSW) 05:27:56 2401.200-2431.200
BEESAT 3 03 Dec 05:28:13 05:32:02 56° 119° (ESE) 05:35:53 437.485
NOAA 18 03 Dec 05:29:32 05:33:16 18° 92° (E) 05:36:59 137.9125
LilacSat-2 03 Dec 05:32:22 05:35:40 28° 96° (E) 05:38:55 437.200
CUBESAT XI-V 03 Dec 05:38:10 05:39:12 11° 271° (W) 05:40:15 437.345
GOMX 1 03 Dec 05:40:56 05:46:23 72° 101° (ESE) 05:51:52 467.674
YUBILEINY 03 Dec 05:42:50 05:51:21 49° 75° (ENE) 05:59:49 435.215
AO-7 03 Dec 05:46:59 05:53:07 23° 308° (NW) 05:59:15 29.400- 29.500
BRITE-PL 03 Dec 05:47:40 05:52:45 47° 288° (WNW) 05:58:05 437.365/2234.400
CUTE-I 03 Dec 05:48:23 05:53:27 42° 98° (E) 05:58:28 437.470
BEESAT 2 03 Dec 05:50:03 05:53:47 43° 117° (ESE) 05:57:34 435.950
HO-68 03 Dec 06:03:11 06:05:50 12° 87° (E) 06:08:29 435.675
HORYU 2 03 Dec 06:04:54 06:08:56 35° 291° (WNW) 06:12:55 437.375
DOVE 4 03 Dec 06:09:00 06:14:16 59° 100° (E) 06:19:24 437.250
Cosmos 2491 03 Dec 06:10:03 06:17:48 37° 85° (E) 06:25:32 435.465 / 435.565
STRAND 1 03 Dec 06:10:48 06:15:54 69° 74° (ENE) 06:21:02 437.568
Cubesat XI-IV 03 Dec 06:13:02 06:18:25 71° 103° (ESE) 06:23:42 437.490
CINEMA 3 03 Dec 06:16:30 06:19:40 17° 90° (E) 06:22:44 145.822/145.860
NOAA 15 03 Dec 06:22:16 06:27:34 86° 287° (WNW) 06:32:51 137.62
RS-15 03 Dec 06:35:58 06:46:11 37° 105° (ESE) 06:56:46 29.354- 29.394
SO-50 03 Dec 06:43:32 06:46:41 19° 249° (WSW) 06:49:48 436.795
AIST 1 03 Dec 06:47:13 06:51:32 53° 79° (E) 06:55:51
PHONESAT 2.4 03 Dec 06:59:29 07:00:14 11° 210° (SSW) 07:00:57 2401.200-2431.200
CUBEBUG 2 03 Dec 06:59:37 06:59:56 10° 88° (E) 07:00:15 437.445
Cosmos 2504 03 Dec 07:02:41 07:11:35 74° 80° (E) 07:20:00 435.465 / 435.565
LilacSat-2 03 Dec 07:07:00 07:09:46 20° 292° (WNW) 07:12:31 437.200
BEESAT 3 03 Dec 07:07:27 07:10:00 16° 317° (NW) 07:12:33 437.485
NOAA 18 03 Dec 07:08:51 07:14:20 61° 289° (WNW) 07:19:45 137.9125
GOMX 1 03 Dec 07:20:27 07:23:51 17° 298° (WNW) 07:27:17 467.674
CUTE 1.7 + AOD 2 03 Dec 07:20:56 07:24:59 45° 99° (E) 07:29:01 437.475
BEESAT 2 03 Dec 07:28:48 07:31:45 20° 315° (NW) 07:34:45 435.950
CUTE-I 03 Dec 07:28:56 07:33:15 26° 295° (WNW) 07:37:34 437.470
CANX-2 03 Dec 07:38:07 07:42:21 85° 103° (ESE) 07:46:34 2200.000
YUBILEINY 03 Dec 07:40:04 07:47:52 37° 275° (W) 07:55:41 435.215
Oscar 11 03 Dec 07:45:32 07:46:50 11° 89° (E) 07:48:08 145.826/435.025
UWE-3 03 Dec 07:46:30 07:49:54 22° 93° (E) 07:53:13 435.000/436.395/437.385
HO-68 03 Dec 07:47:25 07:54:40 76° 105° (ESE) 08:01:51 435.675
DOVE 4 03 Dec 07:47:44 07:51:26 20° 297° (WNW) 07:55:07 437.250
AIST 2 03 Dec 07:48:39 07:51:42 20° 111° (ESE) 07:54:46 435.215
CINEMA 3 03 Dec 07:52:22 07:57:07 51° 288° (WNW) 08:01:39 145.822/145.860
STRAND 1 03 Dec 07:52:50 07:55:33 14° 270° (W) 07:58:17 437.568
UNISAT 6 03 Dec 07:53:06 07:55:18 13° 62° (ENE) 07:57:29 437.425
Cubesat XI-IV 03 Dec 07:54:37 07:57:51 17° 300° (WNW) 08:01:07 437.490
AAUSAT CUBESAT 2 03 Dec 08:00:43 08:04:41 43° 99° (E) 08:08:38 437.432
NOAA 15 03 Dec 08:04:33 08:06:32 12° 303° (WNW) 08:08:31 137.62
Cosmos 2491 03 Dec 08:05:55 08:14:21 49° 285° (WNW) 08:22:49 435.465 / 435.565
SEEDS 03 Dec 08:10:37 08:14:47 71° 284° (WNW) 08:18:56 437.485
PRISM 03 Dec 08:18:44 08:22:48 79° 259° (WSW) 08:26:53 437.425
TIGRISAT 03 Dec 08:22:22 08:26:06 24° 67° (ENE) 08:29:49 435.000
ANTELSAT 03 Dec 08:22:49 08:26:40 25° 67° (ENE) 08:30:29 437.575/2403.000
AIST 1 03 Dec 08:26:34 08:28:37 13° 276° (W) 08:30:39
COMPASS 1 03 Dec 08:27:26 08:31:34 68° 284° (WNW) 08:35:42 437.405
CUBEBUG 2 03 Dec 08:32:39 08:37:07 72° 285° (WNW) 08:41:24 437.445
ZACube-1 03 Dec 08:34:38 08:38:44 45° 99° (E) 08:42:44 437.345
FUNcube-1 03 Dec 08:44:14 08:48:24 53° 99° (E) 08:52:28 145.935
RS-15 03 Dec 08:46:04 08:57:49 69° 308° (NW) 09:10:10 29.354- 29.394
HUMSAT D 03 Dec 08:57:25 08:59:15 13° 91° (E) 09:01:05 437.325/437.525
Cosmos 2504 03 Dec 08:57:27 09:03:59 24° 281° (W) 09:10:19 435.465 / 435.565
CUTE 1.7 + AOD 2 03 Dec 08:57:51 09:00:27 16° 295° (WNW) 09:03:03 437.475
QB50P2 03 Dec 09:16:44 09:17:50 11° 61° (ENE) 09:18:56 145.880/145.840
POLYITAN 1 03 Dec 09:17:43 09:18:29 10° 61° (ENE) 09:19:16 437.675
Oscar 11 03 Dec 09:19:07 09:23:22 63° 286° (WNW) 09:27:37 145.826/435.025
UWE-3 03 Dec 09:22:32 09:26:25 32° 290° (WNW) 09:30:10 435.000/436.395/437.385
AIST 2 03 Dec 09:26:02 09:29:54 39° 309° (NW) 09:33:50 435.215
UNISAT 6 03 Dec 09:26:43 09:31:24 72° 257° (WSW) 09:36:06 437.425
DELFI C3 03 Dec 09:27:58 09:31:53 58° 101° (E) 09:35:49 145.870
QB50P1 03 Dec 09:30:10 09:32:28 14° 63° (ENE) 09:34:47 145.935-145.965
HO-68 03 Dec 09:36:20 09:41:39 23° 303° (WNW) 09:46:58 435.675
DUCHIFAT 1 03 Dec 09:36:42 09:39:00 14° 63° (ENE) 09:41:19 145.980
AAUSAT CUBESAT 2 03 Dec 09:37:14 09:39:48 16° 295° (WNW) 09:42:21 437.432
JAS-2 03 Dec 09:48:55 09:55:07 44° 70° (ENE) 10:00:40 435.910
POPSAT HIP 1 03 Dec 09:50:09 09:53:29 23° 67° (ENE) 09:56:51 437.405
CUSAT 1 03 Dec 09:55:45 09:59:09 48° 281° (W) 10:01:57 437.405
TIGRISAT 03 Dec 09:58:14 10:02:34 36° 263° (W) 10:06:54 435.000
ANTELSAT 03 Dec 09:58:55 10:03:11 34° 263° (W) 10:07:28 437.575/2403.000
DANDE 03 Dec 10:08:11 10:13:13 51° 98° (E) 10:17:01 436.750
ZACube-1 03 Dec 10:11:59 10:14:38 16° 296° (WNW) 10:17:14 437.345
Cosmos 2499 03 Dec 10:13:07 10:19:16 21° 62° (ENE) 10:25:09 435.465 / 435.565
GONETS M04 03 Dec 10:20:31 10:26:50 21° 63° (ENE) 10:33:07
FUNcube-1 03 Dec 10:21:58 10:24:10 14° 297° (WNW) 10:26:21 145.935
HUMSAT D 03 Dec 10:31:12 10:35:10 50° 287° (WNW) 10:39:05 437.325/437.525
PCSat 03 Dec 10:33:51 10:36:40 14° 103° (ESE) 10:39:30 145.827
BUGSAT 1 03 Dec 10:45:09 10:48:49 30° 69° (ENE) 10:52:32 437.445
AO-85 03 Dec 10:45:49 10:49:31 35° 50° (NE) 10:53:06 145.980
NANOSAT C BR1 03 Dec 10:46:01 10:50:18 88° 71° (ENE) 10:54:36 145.865
QB50P2 03 Dec 10:48:44 10:53:00 75° 257° (WSW) 10:57:19 145.880/145.840
POLYITAN 1 03 Dec 10:49:20 10:53:38 79° 258° (WSW) 10:57:57 437.675
ESTCUBE 1 03 Dec 10:52:51 10:57:01 36° 98° (E) 11:01:10 437.505/2401.250
RS-15 03 Dec 11:03:07 11:13:12 29° 337° (NNW) 11:23:32 29.354- 29.394
QB50P1 03 Dec 11:03:35 11:07:46 54° 260° (W) 11:12:00 145.935-145.965
DELFI C3 03 Dec 11:04:46 11:06:12 12° 296° (WNW) 11:07:39 145.870
DUCHIFAT 1 03 Dec 11:10:04 11:14:14 54° 260° (W) 11:18:26 145.980
SPROUT 03 Dec 11:11:53 11:14:24 15° 92° (E) 11:16:55 437.525
AISAT 03 Dec 11:13:11 11:16:56 26° 95° (E) 11:20:40 437.250
POPSAT HIP 1 03 Dec 11:25:14 11:29:04 32° 263° (W) 11:32:57 437.405
JAS-2 03 Dec 11:34:31 11:40:16 30° 264° (W) 11:45:29 435.910
CUBEBUG 1 03 Dec 11:47:13 11:51:41 87° 107° (ESE) 11:56:07 437.445
50 SAT 03 Dec 11:49:36 11:53:05 51° 101° (E) 11:56:33 437.505
VELOX 1 03 Dec 11:49:50 11:54:16 61° 101° (E) 11:58:41 145.980
Gurwin Techsat 1B 03 Dec 11:49:53 11:53:46 21° 63° (ENE) 11:57:41 435.225
DANDE 03 Dec 11:53:47 11:55:49 13° 286° (WNW) 11:57:40 436.750
Cosmos 2499 03 Dec 12:04:54 12:13:39 87° 264° (W) 12:21:46 435.465 / 435.565
DX 1 03 Dec 12:13:40 12:18:00 58° 101° (E) 12:22:20 434.975-435.025
PCSat 03 Dec 12:13:57 12:19:21 77° 300° (WNW) 12:24:49 145.827
GONETS M04 03 Dec 12:16:01 12:24:45 83° 265° (W) 12:33:29
Oscar 19 03 Dec 12:17:18 12:22:22 68° 74° (ENE) 12:27:29 437.125/150
BUGSAT 1 03 Dec 12:20:47 12:24:10 23° 265° (W) 12:27:36 437.445
AO-85 03 Dec 12:26:48 12:29:39 19° 248° (WSW) 12:32:27 145.980
UKube-1 03 Dec 12:27:00 12:31:19 61° 101° (ESE) 12:35:36 .
ESTCUBE 1 03 Dec 12:30:07 12:33:36 22° 294° (WNW) 12:37:05 437.505/2401.250
ITAMSAT 1 03 Dec 12:41:33 12:44:26 15° 60° (ENE) 12:47:18 435.822/435.867
TISAT 1 03 Dec 12:44:06 12:47:37 25° 95° (E) 12:51:07 437.305
SPROUT 03 Dec 12:46:26 12:50:35 47° 288° (WNW) 12:54:40 437.525
AISAT 03 Dec 12:49:28 12:53:22 30° 292° (WNW) 12:57:16 437.250
AO-7 03 Dec 13:01:25 13:08:06 28° 55° (NE) 13:14:49 29.400- 29.500
ITUPSAT 1 03 Dec 13:16:41 13:17:57 11° 89° (E) 13:19:12 437.325
